Location: Allos
(44.2333°N, 6.6333°E)
Time: 22:52:31
(UTC+00:00)

Cosmos 1821 Rocket - Pass Details

Date: 18 April 2021
Orbit: 946 x 1003 km, 82.9° (Epoch: 16 May)

Event Time Altitude Azimuth Distance (km) Brightness Sun altitude
Rises 23:59:45 0° 9° (N) 3,697 8.1 -34.6°
Reaches altitude 10° 00:04:57 10° 45° (NE) 2,759 6.9 -34.5°
Maximum altitude 00:06:24 11° 59° (ENE) 2,703 6.7 -34.4°
Drops below altitude 10° 00:07:52 10° 73° (ENE) 2,763 6.6 -34.4°
Enters shadow 00:11:45 - 102° (ESE) 3,395 6.8 -34.2°
